McAlester, OK

5:11 AM CDT on March 28, 2017 (GMT -0500)
McAlester Regional

Weather History for KMLC - October, 2012

Change the Weather History Date:

Wednesday, October 10, 2012

  Actual Average Record
Temperature  
Mean Temperature 62 °F -  
Max Temperature 71 °F 75 °F 95 °F (1963)
Min Temperature 55 °F 50 °F 30 °F (2000)
Degree Days  
Heating Degree Days 2    
Growing Degree Days 12 (Base 50)    
Moisture  
Dew Point 50 °F    
Average Humidity 64    
Maximum Humidity 90    
Minimum Humidity 36    
Precipitation  
Precipitation 0.00 in - - ()
Sea Level Pressure  
Sea Level Pressure 30.15 in    
Wind  
Wind Speed 7 mph (NE)    
Max Wind Speed 13 mph    
Max Gust Speed 21 mph    
Visibility 10 miles    
Events      
Averages and records for this station are not official NWS values.
T = Trace of Precipitation, MM = Missing Value Source: NWS Daily Summary

Daily Weather History Graph

Daily Weather History Graph

Search for Another Location

Airport or City:

Trip Planner

Search our weather history database for the weather conditions in past years. The results will help you decide how hot, cold, wet, or windy it might be!

Date:

Astronomy

Oct. 10, 2012 Rise Set
Actual Time 7:25 AM CDT 6:54 PM CDT
Civil Twilight 6:59 AM CDT 7:19 PM CDT
Nautical Twilight 6:30 AM CDT 7:48 PM CDT
Astronomical Twilight 6:01 AM CDT 8:17 PM CDT
Moon 2:14 AM CDT (10/10) 3:47 PM CDT (10/10)
Length of Visible Light 12h 19m
Length of Day
11h 28m
Waning Crescent, 27% of the Moon is Illuminated
Oct 10
Waning Crescent
Oct 15
New
Oct 21
First Quarter
Oct 29
Full
Nov 6
Last Quarter

Hourly Weather History & Observations

Time (CDT) Temp. Dew Point Humidity Pressure Visibility Wind Dir Wind Speed Gust Speed Precip Events Conditions
12:53 AM 57.0 °F 53.1 °F 87% 30.04 in 9.0 mi NNE 9.2 mph - N/A   Scattered Clouds
1:53 AM 57.9 °F 55.0 °F 90% 30.07 in 8.0 mi NE 5.8 mph - N/A   Scattered Clouds
2:53 AM 59.0 °F 55.0 °F 87% 30.08 in 8.0 mi NE 3.5 mph - N/A   Mostly Cloudy
3:53 AM 60.1 °F 55.9 °F 86% 30.10 in 9.0 mi NNE 5.8 mph - N/A   Overcast
4:01 AM 59.0 °F 55.4 °F 88% 30.11 in 8.0 mi NNE 8.1 mph - N/A   Overcast
4:53 AM 59.0 °F 55.0 °F 87% 30.12 in 7.0 mi NNE 11.5 mph - N/A   Overcast
5:53 AM 57.9 °F 53.1 °F 84% 30.15 in 9.0 mi NNE 12.7 mph 20.7 mph N/A   Overcast
6:53 AM 57.0 °F 50.0 °F 77% 30.18 in 10.0 mi NE 8.1 mph - N/A   Overcast
7:53 AM 57.0 °F 48.9 °F 74% 30.20 in 10.0 mi NE 9.2 mph - N/A   Overcast
8:53 AM 55.9 °F 48.0 °F 75% 30.23 in 10.0 mi Variable 6.9 mph - N/A   Overcast
9:53 AM 57.9 °F 48.0 °F 70% 30.24 in 10.0 mi NE 5.8 mph 16.1 mph N/A   Overcast
10:53 AM 63.0 °F 48.0 °F 58% 30.23 in 10.0 mi NE 8.1 mph 16.1 mph N/A   Mostly Cloudy
11:53 AM 66.0 °F 48.9 °F 54% 30.22 in 10.0 mi NE 11.5 mph 19.6 mph N/A   Partly Cloudy
12:53 PM 69.1 °F 46.9 °F 45% 30.21 in 10.0 mi NNE 11.5 mph 18.4 mph N/A   Scattered Clouds
1:53 PM 69.1 °F 44.1 °F 40% 30.18 in 10.0 mi East 8.1 mph - N/A   Mostly Cloudy
2:53 PM 70.0 °F 42.1 °F 36% 30.15 in 10.0 mi NNE 9.2 mph - N/A   Overcast
3:53 PM 70.0 °F 43.0 °F 38% 30.14 in 10.0 mi NNE 6.9 mph - N/A   Overcast
4:53 PM 69.1 °F 45.0 °F 42% 30.13 in 10.0 mi NE 6.9 mph - N/A   Overcast
5:53 PM 68.0 °F 46.9 °F 47% 30.12 in 10.0 mi Calm Calm - N/A   Overcast
6:53 PM 66.0 °F 48.0 °F 52% 30.12 in 10.0 mi Calm Calm - 0.00 in   Overcast
7:53 PM 64.9 °F 48.9 °F 56% 30.12 in 10.0 mi Calm Calm - N/A   Overcast
8:53 PM 64.9 °F 48.9 °F 56% 30.13 in 10.0 mi Calm Calm - N/A   Overcast
9:53 PM 64.9 °F 48.0 °F 54% 30.14 in 10.0 mi Calm Calm - N/A   Overcast
10:53 PM 64.0 °F 51.1 °F 63% 30.13 in 10.0 mi SE 3.5 mph - N/A   Overcast
11:53 PM 64.9 °F 52.0 °F 63% 30.12 in 10.0 mi SSE 5.8 mph - N/A   Overcast